Location: Big Prairie
(40.6673°N, 82.0952°W)
Time: 22:17:16
(UTC+00:00)

Meteor 1-26 Rocket - Visible Passes

Search period start: 28 June 2022 00:00
Search period end: 08 July 2022 00:00
Orbit: 809 x 926 km, 81.3° (Epoch: 28 June)

Date Brightness Start Highest point End Pass type
(mag) Time Alt. Az. Time Alt. Az. Time Alt. Az.
28 Jun 5.7 06:29:08 10° N 06:34:17 32° ENE 06:38:01 17° SE visible
28 Jun 5.1 08:12:22 10° NNW 08:17:30 34° W 08:20:21 22° SW visible
29 Jun 5.6 06:22:08 10° N 06:27:20 33° ENE 06:30:41 19° SE visible
29 Jun 5.1 08:05:25 10° NNW 08:10:33 33° W 08:13:02 24° SW visible
30 Jun 5.6 06:15:10 10° N 06:20:23 34° ENE 06:23:24 21° ESE visible
30 Jun 5.1 07:58:28 10° NNW 08:03:35 33° W 08:05:45 26° SW visible
01 Jul 5.6 06:08:11 10° N 06:13:26 34° ENE 06:16:09 23° ESE visible
01 Jul 5.2 07:51:32 10° NNW 07:56:37 33° W 07:58:30 27° WSW visible
02 Jul 5.5 06:01:13 10° N 06:06:30 35° ENE 06:08:56 25° ESE visible
02 Jul 5.2 07:44:35 10° NNW 07:49:40 32° W 07:51:17 28° WSW visible
03 Jul 5.5 05:54:13 10° N 05:59:33 35° ENE 06:01:45 27° ESE visible
03 Jul 5.2 07:37:38 10° NNW 07:42:43 32° W 07:44:05 28° WSW visible
04 Jul 5.4 05:47:15 10° N 05:52:37 36° ENE 05:54:35 29° ESE visible
04 Jul 5.2 07:30:41 10° NNW 07:35:46 31° W 07:36:55 29° WSW visible
05 Jul 5.4 05:40:16 10° N 05:45:40 37° ENE 05:47:26 30° ESE visible
05 Jul 5.2 07:23:45 10° NNW 07:28:48 31° W 07:29:47 29° WSW visible
06 Jul 5.3 05:33:18 10° N 05:38:43 37° ENE 05:40:19 32° ESE visible
06 Jul 5.3 07:16:48 10° NNW 07:21:51 30° W 07:22:40 29° WSW visible
07 Jul 5.3 05:26:19 10° N 05:31:47 38° ENE 05:33:13 33° ESE visible
07 Jul 5.3 07:09:51 10° NNW 07:14:54 30° W 07:15:34 29° WSW visible
